IBE108 SEGU-SEQM

Flight info

Callsign IBE108
Flight time 0h 27m
Altitude 24000
Route USOGI1 PAMIS G675 QIT
Aircraft A343/H-SDE2E3FGHIJ4J5M1RWXY/LB1D1

Departure

Time 2026-04-24 23:39
Airport José Joaquín de Olmedo International Airport (SEGU)

Arrival

Time 2026-04-25 00:06
Airport Mariscal Sucre International Airport (SEQM)
Time Latitude Longitude Altitude Speed Heading
2026-04-24 23:16 -2.14839 -79.88295 32 ft 0 kts 300°
2026-04-24 23:29 -2.14841 -79.88292 31 ft 2 kts 302°
2026-04-24 23:29 -2.14851 -79.88279 32 ft 2 kts 318°
2026-04-24 23:29 -2.14865 -79.88269 31 ft 2 kts 343°
2026-04-24 23:30 -2.14881 -79.88266 33 ft 2 kts
2026-04-24 23:30 -2.14898 -79.88269 33 ft 2 kts 20°
2026-04-24 23:30 -2.14913 -79.88275 31 ft 2 kts 28°
2026-04-24 23:30 -2.14921 -79.88279 30 ft 1 kts 32°
2026-04-24 23:31 -2.14922 -79.88280 30 ft 0 kts 32°
2026-04-24 23:33 -2.14920 -79.88279 30 ft 1 kts 32°
2026-04-24 23:33 -2.14889 -79.88259 33 ft 5 kts 32°
2026-04-24 23:33 -2.14854 -79.88238 33 ft 6 kts 32°
2026-04-24 23:34 -2.14813 -79.88213 33 ft 7 kts 32°
2026-04-24 23:34 -2.14790 -79.88176 33 ft 6 kts 83°
2026-04-24 23:34 -2.14802 -79.88139 33 ft 6 kts 115°
2026-04-24 23:34 -2.14824 -79.88098 33 ft 7 kts 118°
2026-04-24 23:35 -2.14825 -79.88034 33 ft 12 kts 62°
2026-04-24 23:35 -2.14751 -79.87984 33 ft 14 kts 30°
2026-04-24 23:35 -2.14682 -79.87939 33 ft 11 kts 43°
2026-04-24 23:35 -2.14657 -79.87895 33 ft 0 kts 68°
2026-04-24 23:36 -2.14657 -79.87894 33 ft 0 kts 68°
2026-04-24 23:37 -2.14653 -79.87886 33 ft 3 kts 68°
2026-04-24 23:37 -2.14640 -79.87847 33 ft 8 kts 74°
2026-04-24 23:37 -2.14674 -79.87766 32 ft 7 kts 173°
2026-04-24 23:38 -2.14743 -79.87791 31 ft 21 kts 206°
2026-04-24 23:38 -2.15042 -79.87962 33 ft 83 kts 210°
2026-04-24 23:38 -2.15728 -79.88358 30 ft 141 kts 210°
2026-04-24 23:38 -2.16688 -79.88904 332 ft 168 kts 210°
2026-04-24 23:39 -2.17744 -79.89496 959 ft 178 kts 210°
2026-04-24 23:39 -2.18853 -79.90119 1648 ft 191 kts 211°
2026-04-24 23:39 -2.20199 -79.90591 2051 ft 228 kts 182°
2026-04-24 23:39 -2.21267 -79.90355 2459 ft 248 kts 156°
2026-04-24 23:40 -2.22498 -79.89105 3561 ft 261 kts 119°
2026-04-24 23:40 -2.22788 -79.87309 4822 ft 270 kts 87°
2026-04-24 23:40 -2.22075 -79.85534 5548 ft 285 kts 55°
2026-04-24 23:40 -2.19887 -79.84078 5919 ft 293 kts 18°
2026-04-24 23:41 -2.18581 -79.83644 5936 ft 294 kts 20°
2026-04-24 23:41 -2.16713 -79.82813 5942 ft 294 kts 30°
2026-04-24 23:41 -2.14980 -79.81728 5974 ft 293 kts 37°
2026-04-24 23:41 -2.13365 -79.80489 6327 ft 294 kts 41°
2026-04-24 23:42 -2.11802 -79.79150 7204 ft 297 kts 44°
2026-04-24 23:42 -2.10267 -79.77759 8339 ft 298 kts 45°
2026-04-24 23:42 -2.08748 -79.76335 9358 ft 301 kts 45°
2026-04-24 23:42 -2.07221 -79.74876 10287 ft 308 kts 46°
2026-04-24 23:43 -2.05625 -79.73337 10768 ft 330 kts 45°
2026-04-24 23:43 -2.03779 -79.71844 11192 ft 351 kts 35°
2026-04-24 23:43 -2.01697 -79.70508 11920 ft 360 kts 33°
2026-04-24 23:43 -1.99538 -79.69193 12721 ft 365 kts 32°
2026-04-24 23:44 -1.97339 -79.67890 13546 ft 370 kts 31°
2026-04-24 23:44 -1.95131 -79.66601 14338 ft 374 kts 31°
2026-04-24 23:44 -1.92864 -79.65288 15131 ft 379 kts 31°
2026-04-24 23:44 -1.90566 -79.63964 15907 ft 383 kts 31°
2026-04-24 23:45 -1.88240 -79.62626 16693 ft 387 kts 31°
2026-04-24 23:45 -1.85892 -79.61278 17444 ft 392 kts 31°
2026-04-24 23:45 -1.83510 -79.59911 18167 ft 396 kts 31°
2026-04-24 23:45 -1.81110 -79.58534 18883 ft 400 kts 31°
2026-04-24 23:46 -1.78685 -79.57143 19582 ft 404 kts 31°
2026-04-24 23:46 -1.76231 -79.55736 20262 ft 408 kts 31°
2026-04-24 23:46 -1.73754 -79.54316 20911 ft 412 kts 31°
2026-04-24 23:46 -1.71251 -79.52881 21545 ft 416 kts 31°
2026-04-24 23:47 -1.68730 -79.51436 22154 ft 420 kts 31°
2026-04-24 23:47 -1.66177 -79.49972 22694 ft 425 kts 31°
2026-04-24 23:47 -1.63604 -79.48497 22917 ft 426 kts 31°
2026-04-24 23:47 -1.61037 -79.47025 22946 ft 426 kts 31°
2026-04-24 23:48 -1.58458 -79.45547 22944 ft 427 kts 31°
2026-04-24 23:48 -1.55905 -79.44083 22943 ft 428 kts 31°
2026-04-24 23:48 -1.53319 -79.42601 22944 ft 428 kts 31°
2026-04-24 23:48 -1.50736 -79.41120 22944 ft 428 kts 31°
2026-04-24 23:49 -1.48155 -79.39641 22943 ft 428 kts 31°
2026-04-24 23:49 -1.45576 -79.38162 22943 ft 428 kts 31°
2026-04-24 23:49 -1.42994 -79.36683 22943 ft 428 kts 31°
2026-04-24 23:49 -1.40411 -79.35202 22944 ft 428 kts 31°
2026-04-24 23:50 -1.37831 -79.33723 22944 ft 428 kts 31°
2026-04-24 23:50 -1.35248 -79.32243 22943 ft 428 kts 31°
2026-04-24 23:50 -1.32658 -79.30759 22945 ft 428 kts 31°
2026-04-24 23:50 -1.30079 -79.29280 22944 ft 428 kts 31°
2026-04-24 23:51 -1.27494 -79.27799 22941 ft 428 kts 30°
2026-04-24 23:51 -1.24911 -79.26318 22944 ft 428 kts 31°
2026-04-24 23:51 -1.22328 -79.24838 22943 ft 428 kts 31°
2026-04-24 23:51 -1.19747 -79.23359 22943 ft 428 kts 31°
2026-04-24 23:52 -1.17165 -79.21880 22944 ft 428 kts 31°
2026-04-24 23:52 -1.14611 -79.20416 22944 ft 428 kts 31°
2026-04-24 23:52 -1.12029 -79.18936 22942 ft 428 kts 31°
2026-04-24 23:52 -1.09449 -79.17458 22944 ft 428 kts 31°
2026-04-24 23:53 -1.06869 -79.15980 22945 ft 428 kts 31°
2026-04-24 23:53 -1.04292 -79.14503 22941 ft 427 kts 31°
2026-04-24 23:53 -1.01708 -79.13023 22944 ft 427 kts 31°
2026-04-24 23:53 -0.99130 -79.11545 22943 ft 427 kts 30°
2026-04-24 23:54 -0.96552 -79.10068 22941 ft 427 kts 31°
2026-04-24 23:54 -0.93972 -79.08589 22945 ft 428 kts 31°
2026-04-24 23:54 -0.91385 -79.07107 22943 ft 428 kts 31°
2026-04-24 23:54 -0.88805 -79.05629 22944 ft 428 kts 31°
2026-04-24 23:55 -0.86223 -79.04150 22944 ft 428 kts 31°
2026-04-24 23:55 -0.83639 -79.02669 22944 ft 427 kts 30°
2026-04-24 23:55 -0.81058 -79.01191 22940 ft 427 kts 31°
2026-04-24 23:55 -0.78487 -78.99698 22945 ft 428 kts 32°
2026-04-24 23:56 -0.75972 -78.98113 22946 ft 427 kts 34°
2026-04-24 23:56 -0.73491 -78.96475 22941 ft 427 kts 34°
2026-04-24 23:56 -0.71022 -78.94821 22943 ft 427 kts 35°
2026-04-24 23:56 -0.68550 -78.93171 22942 ft 427 kts 34°
2026-04-24 23:57 -0.66105 -78.91551 22944 ft 427 kts 34°
2026-04-24 23:57 -0.63690 -78.89765 22948 ft 426 kts 41°
2026-04-24 23:57 -0.61519 -78.87813 22944 ft 425 kts 45°
2026-04-24 23:57 -0.59411 -78.85739 22941 ft 425 kts 46°
2026-04-24 23:58 -0.57300 -78.83618 22941 ft 425 kts 47°
2026-04-24 23:58 -0.55291 -78.81497 22879 ft 425 kts 49°
2026-04-24 23:58 -0.53300 -78.79324 22629 ft 423 kts 50°
2026-04-24 23:58 -0.51363 -78.77116 22356 ft 422 kts 51°
2026-04-24 23:59 -0.49524 -78.74843 22077 ft 420 kts 54°
2026-04-24 23:59 -0.47767 -78.72517 21806 ft 418 kts 56°
2026-04-24 23:59 -0.46159 -78.70104 21528 ft 415 kts 60°
2026-04-24 23:59 -0.44670 -78.67638 21205 ft 414 kts 61°
2026-04-25 00:00 -0.43243 -78.65152 20799 ft 410 kts 64°
2026-04-25 00:00 -0.41988 -78.62603 20412 ft 407 kts 68°
2026-04-25 00:00 -0.40887 -78.60009 19887 ft 404 kts 70°
2026-04-25 00:00 -0.39833 -78.57438 19332 ft 392 kts 70°
2026-04-25 00:01 -0.38836 -78.54979 18803 ft 371 kts 72°
2026-04-25 00:01 -0.38059 -78.52593 18265 ft 353 kts 77°
2026-04-25 00:01 -0.37470 -78.50300 17728 ft 339 kts 80°
2026-04-25 00:01 -0.36935 -78.48033 17091 ft 331 kts 80°
2026-04-25 00:02 -0.36415 -78.45816 16285 ft 325 kts 80°
2026-04-25 00:02 -0.35901 -78.43634 15465 ft 320 kts 80°
2026-04-25 00:02 -0.35218 -78.41529 14652 ft 319 kts 69°
2026-04-25 00:02 -0.34222 -78.39553 13806 ft 317 kts 64°
2026-04-25 00:03 -0.32945 -78.37780 13054 ft 314 kts 49°
2026-04-25 00:03 -0.31347 -78.36310 12368 ft 310 kts 39°
2026-04-25 00:03 -0.29589 -78.35121 11821 ft 299 kts 31°
2026-04-25 00:03 -0.27683 -78.34414 11454 ft 291 kts
2026-04-25 00:04 -0.25667 -78.34365 11043 ft 289 kts 353°
2026-04-25 00:04 -0.23723 -78.34684 10494 ft 276 kts 345°
2026-04-25 00:04 -0.21898 -78.35013 10032 ft 256 kts 350°
2026-04-25 00:04 -0.20202 -78.35125 9760 ft 233 kts 359°
2026-04-25 00:05 -0.18642 -78.35194 9344 ft 222 kts 355°
2026-04-25 00:05 -0.17117 -78.35211 8830 ft 218 kts 359°
2026-04-25 00:05 -0.15627 -78.35282 8325 ft 211 kts 351°
2026-04-25 00:05 -0.14199 -78.35365 7970 ft 198 kts 356°
2026-04-25 00:06 -0.12922 -78.35426 7872 ft 157 kts 358°
2026-04-25 00:06 -0.12159 -78.35459 7832 ft 68 kts 357°
2026-04-25 00:06 -0.11864 -78.35478 7820 ft 31 kts 355°
2026-04-25 00:06 -0.11732 -78.35514 7819 ft 15 kts 334°
2026-04-25 00:07 -0.11651 -78.35561 7821 ft 13 kts 327°
2026-04-25 00:07 -0.11623 -78.35619 7819 ft 6 kts 246°
2026-04-25 00:07 -0.11648 -78.35635 7820 ft 3 kts 202°
2026-04-25 00:07 -0.11661 -78.35638 7821 ft 2 kts 194°
2026-04-25 00:08 -0.11678 -78.35640 7822 ft 2 kts 186°
2026-04-25 00:08 -0.11710 -78.35642 7823 ft 8 kts 181°
2026-04-25 00:08 -0.11783 -78.35639 7822 ft 10 kts 177°
2026-04-25 00:08 -0.11844 -78.35636 7822 ft 7 kts 177°
2026-04-25 00:09 -0.11886 -78.35634 7829 ft 5 kts 177°
2026-04-25 00:09 -0.11909 -78.35633 7830 ft 2 kts 177°
2026-04-25 00:09 -0.11954 -78.35631 7833 ft 11 kts 176°
2026-04-25 00:09 -0.12068 -78.35624 7833 ft 21 kts 176°
2026-04-25 00:10 -0.12206 -78.35619 7844 ft 18 kts 179°
2026-04-25 00:10 -0.12304 -78.35621 7843 ft 12 kts 188°
2026-04-25 00:10 -0.12359 -78.35666 7838 ft 10 kts 250°
2026-04-25 00:10 -0.12363 -78.35734 7839 ft 10 kts 268°
2026-04-25 00:11 -0.12371 -78.35805 7844 ft 10 kts 254°
2026-04-25 00:11 -0.12388 -78.35828 7835 ft 4 kts 220°
2026-04-25 00:11 -0.12420 -78.35835 7835 ft 4 kts 184°
2026-04-25 00:11 -0.12446 -78.35835 7839 ft 4 kts 179°
2026-04-25 00:12 -0.12472 -78.35840 7837 ft 3 kts 199°
2026-04-25 00:12 -0.12485 -78.35854 7836 ft 6 kts 231°
2026-04-25 00:12 -0.12495 -78.35878 7841 ft 1 kts 255°
2026-04-25 00:12 -0.12499 -78.35905 7839 ft 7 kts 264°
2026-04-25 00:13 -0.12500 -78.35915 7839 ft 0 kts 268°